TimeEDT,TemperatureF,Dew PointF,Humidity,Sea Level PressureIn,VisibilityMPH,Wind Direction,Wind SpeedMPH,Gust SpeedMPH,PrecipitationIn,Events,Conditions,WindDirDegrees,DateUTC
12:52 AM,68.0,64.9,90,29.99,10.0,Calm,Calm,-,N/A,,Clear,0,2013-06-12 04:52:00
1:52 AM,68.0,66.0,93,29.98,10.0,South,3.5,-,N/A,,Clear,170,2013-06-12 05:52:00
2:52 AM,66.9,64.9,93,29.97,10.0,Calm,Calm,-,N/A,,Clear,0,2013-06-12 06:52:00
3:52 AM,64.9,64.0,97,29.96,9.0,Calm,Calm,-,N/A,,Clear,0,2013-06-12 07:52:00
4:52 AM,66.0,64.0,93,29.96,10.0,NW,3.5,-,N/A,,Clear,310,2013-06-12 08:52:00
5:52 AM,66.0,64.9,96,29.97,10.0,Calm,Calm,-,N/A,,Mostly Cloudy,0,2013-06-12 09:52:00
6:52 AM,66.0,64.0,93,29.99,9.0,North,3.5,-,N/A,,Mostly Cloudy,350,2013-06-12 10:52:00
7:52 AM,73.9,68.0,82,29.99,10.0,Calm,Calm,-,N/A,,Mostly Cloudy,0,2013-06-12 11:52:00
8:52 AM,79.0,66.0,64,30.01,10.0,Calm,Calm,-,N/A,,Clear,0,2013-06-12 12:52:00
9:52 AM,81.0,64.9,58,30.00,10.0,SSW,5.8,-,N/A,,Scattered Clouds,200,2013-06-12 13:52:00
10:52 AM,82.9,66.0,56,29.99,10.0,South,8.1,-,N/A,,Mostly Cloudy,190,2013-06-12 14:52:00
11:52 AM,86.0,69.1,57,30.00,10.0,WSW,3.5,-,N/A,,Mostly Cloudy,250,2013-06-12 15:52:00
12:52 PM,88.0,71.1,57,29.98,10.0,SW,8.1,-,N/A,,Mostly Cloudy,220,2013-06-12 16:52:00
1:52 PM,89.1,72.0,57,29.97,10.0,SSW,8.1,-,N/A,,Mostly Cloudy,210,2013-06-12 17:52:00
2:52 PM,87.1,70.0,57,29.97,10.0,West,6.9,-,N/A,,Mostly Cloudy,260,2013-06-12 18:52:00
3:52 PM,86.0,71.1,61,29.96,10.0,WSW,9.2,-,N/A,,Mostly Cloudy,240,2013-06-12 19:52:00
4:52 PM,88.0,72.0,59,29.93,10.0,SW,13.8,-,N/A,,Scattered Clouds,220,2013-06-12 20:52:00
5:52 PM,84.9,73.0,67,29.92,10.0,SW,9.2,-,N/A,,Mostly Cloudy,220,2013-06-12 21:52:00
6:52 PM,87.1,75.0,67,29.92,10.0,SW,6.9,-,N/A,,Mostly Cloudy,230,2013-06-12 22:52:00
7:52 PM,84.0,72.0,67,29.93,10.0,SW,5.8,-,N/A,,Overcast,230,2013-06-12 23:52:00
8:52 PM,81.0,73.0,77,29.91,10.0,SW,4.6,-,N/A,,Mostly Cloudy,220,2013-06-13 00:52:00
9:52 PM,81.0,73.9,79,29.91,10.0,SW,6.9,-,N/A,,Mostly Cloudy,220,2013-06-13 01:52:00
10:52 PM,80.1,73.0,79,29.90,10.0,SSW,4.6,-,N/A,,Scattered Clouds,210,2013-06-13 02:52:00
11:52 PM,78.1,73.0,84,29.89,10.0,SW,4.6,-,N/A,,Partly Cloudy,220,2013-06-13 03:52:00